Location: Unspecified
(0.0000°N, 0.0000°E)
Time: 20:28:49
(UTC+00:00)

ISS - Visible Passes

Search period start: 16 November 2018 00:00
Search period end: 26 November 2018 00:00
Orbit: 401 x 408 km, 51.6° (Epoch: 16 November)

Date Brightness Start Highest point End Pass type
(mag) Time Alt. Az. Time Alt. Az. Time Alt. Az.
16 Nov -1.4 19:29:15 10° WSW 19:31:28 19° WNW 19:31:28 19° WNW visible
17 Nov -3.2 18:36:24 10° SW 18:39:35 52° NW 18:42:11 14° NNE visible
19 Nov -1.0 18:30:01 10° W 18:31:42 13° NW 18:33:23 10° NNW visible
20 Nov -0.8 04:28:17 10° NE 04:29:18 11° NE 04:30:18 10° ENE visible
21 Nov -3.7 05:10:15 10° NW 05:13:28 62° SW 05:16:43 10° SSE visible
22 Nov -2.8 04:20:41 35° NNE 04:21:22 41° NE 04:24:29 10° SE visible
23 Nov -0.3 03:31:17 10° E 03:31:17 10° E 03:31:17 10° E visible
23 Nov -1.8 05:03:59 12° W 05:05:31 15° SW 05:07:34 10° SSW visible
24 Nov -2.3 04:14:29 29° S 04:14:29 29° S 04:16:28 10° SSE visible
